When you browse on this site, cookies collect data to enhance your experience and personalize the content and advertising you see.
Visit our Privacy Policy to learn more. By continuing to use the site, you agree to this use of cookies and data.
  • In Portugal
  • List of Countries
  • For 7 days
  • Water Temperature
  • Satellite Maps
  • Weather Map
  • Weather Widgets
  • user-avatar
    Login

    Hourly Weather Linz

    Today, 18 January, Friday

    Time Temperature Precipitation Wind Pressure Humidity
    00:00 +1°C° 0.2 mm 5 mps 729 mmHg 85%
    01:00 +1°C° 0.2 mm 5 mps 729 mmHg 85%
    02:00 0°C° 0.4 mm 5 mps 729 mmHg 86%
    03:00 0°C° 0.4 mm 5 mps 730 mmHg 86%
    04:00 0°C° 0.4 mm 5 mps 730 mmHg 87%
    05:00 -1°C° 0.1 mm 5 mps 731 mmHg 87%
    06:00 -2°C° 0.1 mm 5 mps 731 mmHg 86%
    07:00 -4°C° 0.1 mm 5 mps 732 mmHg 85%
    08:00 -2°C° 0 mm 5 mps 732 mmHg 84%
    09:00 -2°C° 0 mm 5 mps 733 mmHg 82%
    10:00 -3°C° 0 mm 6 mps 734 mmHg 80%
    11:00 -2°C° 0 mm 5 mps 734 mmHg 77%
    12:00 -1°C° 0 mm 5 mps 734 mmHg 75%
    13:00 -1°C° 0 mm 5 mps 734 mmHg 73%
    14:00 -1°C° 0 mm 4 mps 735 mmHg 75%
    15:00 0°C° 0 mm 3 mps 735 mmHg 77%
    16:00 -1°C° 0 mm 2 mps 735 mmHg 78%
    17:00 -2°C° 0 mm 2 mps 735 mmHg 81%
    18:00 -1°C° 0 mm 1 mps 736 mmHg 83%
    19:00 -2°C° 0 mm 1 mps 736 mmHg 85%
    20:00 -2°C° 0 mm 1 mps 737 mmHg 85%
    21:00 -2°C° 0 mm 1 mps 737 mmHg 85%
    22:00 -3°C° 0 mm 1 mps 737 mmHg 85%
    23:00 -3°C° 0 mm 1 mps 737 mmHg 84%

    Tomorrow, 19 January, Saturday

    Time Temperature Precipitation Wind Pressure Humidity
    00:00 -3°C° 0 mm 1 mps 737 mmHg 84%
    01:00 -3°C° 0 mm 1 mps 736 mmHg 83%
    02:00 -6°C° 0 mm 2 mps 736 mmHg 82%
    03:00 -6°C° 0 mm 2 mps 736 mmHg 81%
    04:00 -6°C° 0 mm 2 mps 736 mmHg 80%
    05:00 -6°C° 0 mm 2 mps 735 mmHg 80%
    06:00 -6°C° 0 mm 2 mps 735 mmHg 79%
    07:00 -6°C° 0 mm 2 mps 735 mmHg 78%
    08:00 -5°C° 0 mm 2 mps 735 mmHg 75%
    09:00 -4°C° 0 mm 2 mps 735 mmHg 72%
    10:00 -4°C° 0 mm 3 mps 735 mmHg 69%
    11:00 -2°C° 0 mm 3 mps 734 mmHg 67%
    12:00 -1°C° 0 mm 3 mps 734 mmHg 66%
    13:00 0°C° 0 mm 3 mps 733 mmHg 64%
    14:00 -1°C° 0 mm 3 mps 733 mmHg 68%
    15:00 -1°C° 0 mm 3 mps 732 mmHg 71%
    16:00 -1°C° 0 mm 2 mps 732 mmHg 75%
    17:00 -2°C° 0 mm 2 mps 732 mmHg 77%
    18:00 -3°C° 0 mm 2 mps 732 mmHg 79%
    19:00 -4°C° 0 mm 2 mps 732 mmHg 81%
    20:00 -4°C° 0 mm 2 mps 732 mmHg 81%
    21:00 -2°C° 0 mm 1 mps 732 mmHg 81%
    22:00 -2°C° 0 mm 1 mps 732 mmHg 81%
    23:00 -2°C° 0 mm 1 mps 732 mmHg 81%

    Day after tomorrow, 20 January, Sunday

    Time Temperature Precipitation Wind Pressure Humidity
    00:00 -3°C° 0 mm 1 mps 731 mmHg 81%
    01:00 -3°C° 0 mm 1 mps 731 mmHg 81%
    02:00 -3°C° 0 mm 1 mps 731 mmHg 80%
    03:00 -3°C° 0 mm 1 mps 731 mmHg 80%
    04:00 -3°C° 0 mm 1 mps 731 mmHg 79%
    05:00 -3°C° 0 mm 1 mps 731 mmHg 78%
    06:00 -3°C° 0 mm 1 mps 731 mmHg 78%
    07:00 -3°C° 0 mm 1 mps 731 mmHg 77%
    08:00 -3°C° 0 mm 1 mps 731 mmHg 74%
    09:00 -3°C° 0 mm 0 mps 732 mmHg 71%
    10:00 -2°C° 0 mm 0 mps 732 mmHg 68%
    11:00 -1°C° 0 mm 0 mps 732 mmHg 66%
    12:00 0°C° 0 mm 0 mps 732 mmHg 64%
    13:00 +1°C° 0 mm 0 mps 731 mmHg 62%
    14:00 +1°C° 0 mm 0 mps 732 mmHg 66%
    15:00 0°C° 0 mm 0 mps 732 mmHg 69%
    16:00 0°C° 0 mm 0 mps 732 mmHg 72%
    17:00 0°C° 0 mm 0 mps 732 mmHg 74%
    18:00 -1°C° 0 mm 0 mps 733 mmHg 76%
    19:00 0°C° 0 mm 1 mps 733 mmHg 78%
    20:00 -1°C° 0 mm 1 mps 734 mmHg 79%
    21:00 -1°C° 0 mm 1 mps 734 mmHg 81%
    22:00 -1°C° 0 mm 1 mps 735 mmHg 82%
    23:00 -1°C° 0 mm 1 mps 735 mmHg 83%

    21 January, Monday

    Time Temperature Precipitation Wind Pressure Humidity
    00:00 -1°C° 0 mm 1 mps 735 mmHg 84%
    01:00 -2°C° 0 mm 1 mps 736 mmHg 85%
    02:00 -2°C° 0 mm 1 mps 736 mmHg 85%
    03:00 -2°C° 0 mm 1 mps 736 mmHg 85%
    04:00 -2°C° 0 mm 1 mps 736 mmHg 85%
    05:00 -2°C° 0 mm 1 mps 736 mmHg 85%
    06:00 -2°C° 0 mm 1 mps 737 mmHg 85%
    07:00 -3°C° 0 mm 1 mps 737 mmHg 84%
    08:00 -2°C° 0 mm 1 mps 737 mmHg 81%
    09:00 -1°C° 0 mm 1 mps 737 mmHg 78%
    10:00 -3°C° 0 mm 2 mps 738 mmHg 76%
    11:00 -2°C° 0 mm 2 mps 737 mmHg 73%
    12:00 -1°C° 0 mm 2 mps 737 mmHg 71%
    13:00 +1°C° 0 mm 2 mps 737 mmHg 68%
    14:00 -1°C° 0 mm 2 mps 736 mmHg 71%
    15:00 -1°C° 0 mm 2 mps 736 mmHg 73%
    16:00 0°C° 0 mm 1 mps 736 mmHg 76%
    17:00 0°C° 0 mm 1 mps 736 mmHg 77%
    18:00 -1°C° 0 mm 1 mps 736 mmHg 77%
    19:00 -2°C° 0 mm 1 mps 737 mmHg 78%
    20:00 -2°C° 0 mm 1 mps 737 mmHg 77%
    21:00 -2°C° 0 mm 1 mps 737 mmHg 76%
    22:00 -3°C° 0 mm 1 mps 736 mmHg 75%
    23:00 -3°C° 0 mm 1 mps 736 mmHg 75%

    22 January, Tuesday

    Time Temperature Precipitation Wind Pressure Humidity
    00:00 -3°C° 0 mm 1 mps 735 mmHg 76%
    01:00 -3°C° 0 mm 1 mps 735 mmHg 76%
    02:00 -3°C° 0 mm 1 mps 734 mmHg 77%
    03:00 -3°C° 0 mm 1 mps 734 mmHg 77%
    04:00 -3°C° 0 mm 1 mps 733 mmHg 78%
    05:00 -3°C° 0 mm 1 mps 732 mmHg 79%
    06:00 -4°C° 0 mm 1 mps 732 mmHg 79%
    07:00 -4°C° 0 mm 1 mps 731 mmHg 80%
    08:00 -3°C° 0 mm 1 mps 730 mmHg 77%
    09:00 -2°C° 0 mm 1 mps 730 mmHg 74%
    10:00 -1°C° 0 mm 1 mps 729 mmHg 71%
    11:00 -1°C° 0 mm 1 mps 728 mmHg 69%
    12:00 0°C° 0 mm 1 mps 727 mmHg 66%
    13:00 +1°C° 0 mm 1 mps 726 mmHg 63%
    14:00 +1°C° 0 mm 1 mps 725 mmHg 67%
    15:00 0°C° 0 mm 1 mps 724 mmHg 72%
    16:00 0°C° 0 mm 1 mps 723 mmHg 76%
    17:00 0°C° 0 mm 1 mps 722 mmHg 79%
    18:00 -1°C° 0 mm 1 mps 722 mmHg 82%
    19:00 -3°C° 0 mm 2 mps 721 mmHg 85%
    20:00 -1°C° 0 mm 1 mps 721 mmHg 86%
    21:00 -2°C° 0 mm 1 mps 720 mmHg 87%
    22:00 -2°C° 0 mm 1 mps 720 mmHg 88%
    23:00 -2°C° 0.1 mm 1 mps 720 mmHg 88%

    23 January, Wednesday

    Time Temperature Precipitation Wind Pressure Humidity
    00:00 -3°C° 0.1 mm 0 mps 719 mmHg 89%
    01:00 -2°C° 0.1 mm 0 mps 719 mmHg 89%
    02:00 -2°C° 0.2 mm 0 mps 719 mmHg 90%
    03:00 -1°C° 0.2 mm 1 mps 718 mmHg 92%
    04:00 -1°C° 0.2 mm 1 mps 718 mmHg 93%
    05:00 -1°C° 0 mm 1 mps 718 mmHg 93%
    06:00 -2°C° 0 mm 1 mps 718 mmHg 93%
    07:00 -2°C° 0 mm 1 mps 717 mmHg 93%
    08:00 -1°C° 0 mm 1 mps 717 mmHg 90%
    09:00 -2°C° 0 mm 0 mps 717 mmHg 86%
    10:00 -1°C° 0 mm 0 mps 717 mmHg 83%
    11:00 -1°C° 0 mm 0 mps 717 mmHg 81%
    12:00 0°C° 0 mm 0 mps 716 mmHg 78%
    13:00 0°C° 0 mm 0 mps 716 mmHg 76%
    14:00 +1°C° 0 mm 1 mps 716 mmHg 78%
    15:00 +1°C° 0 mm 1 mps 715 mmHg 81%
    16:00 +1°C° 0 mm 1 mps 715 mmHg 83%
    17:00 -2°C° 0 mm 2 mps 715 mmHg 85%
    18:00 -2°C° 0 mm 2 mps 715 mmHg 86%
    19:00 -3°C° 0 mm 2 mps 714 mmHg 88%
    20:00 -4°C° 0 mm 3 mps 714 mmHg 87%
    21:00 -4°C° 0 mm 3 mps 714 mmHg 87%
    22:00 -2°C° 0 mm 3 mps 715 mmHg 86%
    23:00 -4°C° 0 mm 3 mps 714 mmHg 87%
    Show more